GEFSSGP_850_meantemp_144.txt.gz
Temperature
22 22 21 21 20 20 22 25 27 27 27 27 27 27 25 24 23 22 22 22 22 21 21 20 20 20 20 20 20 20 19 19 19 19 19 19 19 19 19 19 19 19 18 18 18 18 18 18 18
23 22 21 20 20 21 23 26 27 27 27 27 27 26 25 24 23 22 21 22 22 21 21 20 20 20 20 20 20 19 19 19 19 19 19 19 19 19 19 18 18 18 18 18 18 18 18 18 18
22 22 21 19 21 22 24 27 27 28 28 27 26 26 25 23 22 22 22 22 22 21 21 21 20 20 20 20 19 19 19 19 19 19 19 19 18 18 18 18 18 18 18 18 18 18 18 18 17
22 22 21 20 22 23 25 27 28 28 28 27 26 25 25 24 24 23 22 22 22 21 21 21 20 20 20 20 19 19 19 19 19 19 19 18 18 18 18 18 18 18 18 18 18 18 18 18 17
22 22 20 20 22 25 27 28 28 27 27 26 25 24 24 24 24 23 23 22 22 21 21 21 20 20 20 20 19 19 19 19 19 18 18 18 18 18 18 18 18 18 18 18 18 18 18 18 17
22 20 20 21 23 26 27 28 28 27 26 26 25 24 23 23 24 23 22 22 22 22 21 21 20 20 20 20 19 19 19 19 18 18 18 18 18 18 18 18 18 18 18 18 18 18 18 18 17
22 20 21 23 24 26 28 29 28 27 26 26 25 23 22 21 23 22 22 22 22 21 21 21 20 20 20 20 19 19 19 19 18 18 18 18 18 18 18 18 18 18 18 18 18 18 18 17 17
24 20 22 23 24 26 28 29 28 27 26 26 25 23 22 21 22 22 21 22 21 21 21 21 20 20 20 19 19 19 19 19 19 18 18 18 18 18 18 18 18 18 18 18 18 18 18 18 17
25 21 21 23 25 26 28 28 28 28 27 26 26 25 24 22 22 21 21 21 21 21 21 21 20 20 20 20 19 19 19 19 19 18 18 18 18 18 18 18 18 18 18 18 18 18 18 18 17
24 20 22 25 26 26 28 28 27 27 26 25 25 25 23 22 21 21 21 20 21 21 21 20 20 20 20 20 19 19 19 19 19 18 18 18 18 18 18 18 18 18 18 18 18 18 18 18 17
23 23 25 27 28 28 27 28 28 26 25 24 24 24 23 22 21 21 21 21 21 21 21 20 20 20 20 20 20 19 19 19 19 18 18 18 18 18 18 18 18 18 18 18 18 18 18 18 18
25 25 27 28 29 28 28 27 27 27 26 27 26 25 23 22 22 21 21 21 21 21 21 21 20 20 20 20 20 19 19 19 19 18 18 18 18 18 18 18 18 18 18 18 18 18 18 18 18
25 26 28 28 29 28 28 27 27 27 27 26 25 24 24 23 22 22 22 21 21 21 21 21 20 20 20 20 20 19 19 19 19 18 18 18 18 18 18 18 18 18 18 18 18 18 18 18 18
26 27 27 28 28 28 27 27 27 26 26 25 24 24 24 23 23 22 21 21 21 21 21 20 20 20 20 20 20 19 19 19 19 18 18 18 18 18 18 18 18 18 18 18 18 18 18 18 17
27 26 26 26 27 28 27 26 26 26 25 24 24 24 24 23 23 22 22 22 21 21 21 20 20 20 20 20 19 19 19 19 19 18 18 18 18 18 18 18 18 18 18 18 18 18 18 17 17
25 25 24 26 27 28 27 25 25 26 25 23 23 23 23 23 23 23 22 22 22 21 21 20 20 20 20 19 19 19 19 19 19 18 18 18 18 18 18 18 18 18 18 18 18 18 18 18 17
23 23 24 25 27 27 26 24 25 25 24 24 23 23 23 23 22 22 22 22 22 21 21 20 20 20 19 19 19 19 19 19 19 18 18 18 18 18 18 18 18 18 18 18 18 18 18 18 17
22 23 24 25 26 27 25 24 24 25 24 24 23 23 23 23 23 23 22 22 22 21 21 20 20 20 19 19 19 19 19 19 19 18 18 18 18 18 18 18 18 18 18 18 17 18 18 18 17
24 24 24 25 27 26 25 24 24 24 24 24 23 23 22 23 23 22 22 22 21 21 20 20 20 20 19 19 19 19 18 18 18 18 18 18 18 18 18 18 18 18 17 18 17 17 17 17 17
25 24 24 25 26 26 24 24 24 24 23 24 23 22 22 22 22 22 22 21 21 21 20 20 20 20 19 19 19 19 19 19 18 18 18 18 18 18 18 18 18 18 17 17 17 17 17 17 17
25 24 24 25 26 25 24 23 23 23 23 23 23 23 22 22 22 22 21 21 21 20 20 20 20 19 19 19 19 18 18 18 18 18 18 18 18 18 18 18 18 18 18 17 18 17 17 17 17
24 26 26 26 24 22 24 21 22 22 22 22 22 22 22 22 22 21 21 21 20 20 20 20 19 19 19 19 18 18 18 18 18 18 18 18 18 18 18 18 18 18 18 17 17 17 17 17 17
25 26 26 26 24 22 22 21 21 21 21 21 21 21 22 22 22 21 21 21 20 20 20 19 19 19 19 18 18 18 18 19 19 18 18 18 18 18 18 18 18 18 18 17 17 17 17 17 17
27 26 24 22 20 21 21 21 21 20 20 21 21 21 21 21 21 21 21 20 20 20 19 19 19 19 19 18 18 18 18 18 18 18 18 18 18 18 18 18 18 18 18 17 17 17 17 17 17
26 22 21 21 20 20 21 21 20 20 21 21 21 21 21 21 21 21 20 20 20 19 19 19 19 19 18 18 18 18 18 18 18 18 18 18 18 18 18 18 18 18 18 17 17 17 17 17 17
24 22 20 21 20 20 21 21 20 21 21 21 21 21 21 21 21 20 20 20 20 19 19 19 19 18 18 18 18 18 18 18 18 18 18 18 18 18 18 18 18 17 17 17 17 17 17 17 17
25 23 21 20 21 20 20 20 20 21 20 20 20 20 20 21 20 20 20 20 20 19 19 19 18 18 18 18 18 18 18 18 18 18 18 18 18 18 18 18 17 17 17 17 17 17 17 17 17
25 24 20 20 20 20 21 20 19 20 20 20 19 19 20 20 20 20 20 20 20 19 19 19 18 18 18 18 18 18 17 17 18 17 18 18 18 17 17 17 17 17 17 17 17 17 17 17 17
25 24 21 19 19 20 20 20 21 19 19 19 19 19 20 20 20 20 20 20 19 19 19 18 18 18 18 17 17 17 17 17 17 17 18 18 17 17 17 17 17 17 17 17 17 17 17 17 17
24 23 20 20 20 19 19 19 20 19 19 19 19 20 20 20 20 20 20 20 19 19 18 18 18 18 18 18 18 17 17 17 17 17 17 17 17 17 17 17 17 17 17 17 17 17 17 17 17

GEFSSGP_850_meantemp_150.txt.gz
Temperature
21 21 20 19 19 19 21 23 24 24 24 25 24 24 23 22 22 21 21 21 21 20 20 19 19 19 20 20 20 19 19 19 19 19 19 19 19 19 18 18 18 18 18 18 18 18 18 18 18
21 21 20 19 19 21 22 24 24 24 24 24 24 24 23 21 21 21 20 21 21 20 20 20 20 20 20 20 20 19 19 19 19 19 19 19 19 18 18 18 18 18 18 18 18 18 18 18 18
21 20 20 18 20 21 23 24 24 24 25 25 24 23 22 21 21 21 21 21 21 20 20 20 20 20 20 20 20 19 19 19 19 19 19 19 18 18 18 18 18 18 18 18 18 18 18 18 17
21 20 20 19 22 22 23 24 24 24 25 25 24 22 22 21 22 22 22 21 21 21 20 20 20 20 20 20 20 20 19 19 19 19 19 18 18 18 18 18 18 18 18 18 17 17 17 17 17
21 20 19 19 21 22 23 24 25 24 24 24 23 22 21 21 22 22 22 21 21 21 20 20 20 20 20 20 20 19 19 19 19 19 19 18 18 18 18 18 18 18 18 17 17 17 17 17 17
21 18 19 20 22 23 24 25 25 24 24 24 23 21 20 21 22 22 22 21 21 21 20 20 20 20 20 19 19 19 19 19 19 19 19 18 18 18 18 18 18 18 18 17 17 17 17 17 17
20 18 20 21 22 23 25 25 25 24 24 24 23 20 20 20 22 22 21 21 21 21 20 20 20 19 19 19 19 19 19 19 19 19 18 18 18 18 18 18 18 18 18 17 17 17 17 17 17
22 18 20 20 22 24 25 25 25 25 24 24 24 21 20 21 21 21 21 21 20 20 20 20 20 19 19 19 19 19 19 19 19 18 18 18 18 18 18 18 18 18 18 18 17 17 17 17 17
22 18 19 21 23 24 25 25 25 25 24 24 24 23 23 22 21 21 20 20 20 20 20 20 20 19 19 19 19 19 19 18 18 18 18 18 18 18 18 18 18 18 18 18 17 17 17 17 17
21 18 20 22 23 24 25 25 25 24 24 23 23 23 22 21 21 21 20 20 20 20 19 20 20 19 19 19 19 19 18 18 18 18 18 18 18 18 18 18 18 18 18 18 17 17 17 17 17
20 20 21 23 25 25 24 25 25 24 23 23 23 22 21 21 21 21 21 21 20 20 20 19 19 19 19 19 19 19 18 18 18 18 18 18 18 18 18 18 18 18 17 17 17 17 17 17 17
21 21 23 24 25 25 24 25 24 24 25 26 25 24 22 21 21 21 21 21 20 20 20 20 19 19 19 19 19 19 19 18 18 18 18 18 18 18 18 18 18 18 18 18 17 17 17 17 17
22 22 24 25 25 25 25 24 24 24 25 25 24 23 22 22 22 21 21 21 21 20 20 20 20 20 19 19 19 19 19 19 18 18 18 18 18 18 18 18 18 18 17 17 17 17 17 17 17
23 23 24 25 25 25 24 24 24 24 25 24 23 22 22 22 21 21 21 21 21 20 20 20 20 20 20 19 19 19 19 19 18 18 18 18 18 18 18 18 18 18 17 17 17 17 17 17 17
24 23 23 23 24 25 24 24 23 24 24 23 22 22 21 21 21 21 21 21 21 21 20 20 20 20 20 20 19 19 19 19 19 18 18 18 18 18 18 18 18 17 17 17 17 17 17 17 17
23 22 22 23 24 24 24 23 23 24 23 22 21 21 20 21 21 21 21 21 21 21 20 20 20 19 19 19 19 19 19 19 18 18 18 18 18 18 18 18 17 17 17 17 17 17 17 17 17
20 21 22 23 24 24 24 23 22 23 22 21 21 21 21 21 21 21 21 21 21 21 21 20 20 20 20 19 19 19 19 19 18 18 18 18 18 18 18 17 17 17 17 17 17 17 17 17 17
21 22 22 22 23 23 23 22 22 22 22 21 21 21 21 21 21 21 21 21 21 20 20 20 20 20 19 19 19 18 18 18 18 18 18 18 18 18 18 17 17 17 17 17 17 17 17 17 17
22 22 22 22 23 23 22 21 21 21 21 21 21 21 21 21 21 21 21 21 21 20 20 20 19 19 19 19 18 18 18 18 18 18 18 18 18 18 17 17 17 17 17 17 17 17 17 17 17
22 22 21 22 23 23 22 21 21 20 20 21 21 20 21 21 21 21 21 21 21 20 20 20 20 19 19 19 19 18 18 18 18 18 18 18 18 17 17 17 17 17 17 17 17 17 17 17 17
22 21 22 22 22 22 22 21 21 20 21 21 21 21 21 21 21 21 21 20 20 20 20 20 20 19 19 19 18 18 18 18 18 18 18 18 18 17 17 17 17 17 17 17 17 17 17 17 17
21 22 22 22 21 20 21 20 21 19 20 20 20 20 21 21 21 21 21 20 20 20 20 20 20 19 19 19 18 18 18 18 18 18 18 18 18 18 17 17 17 17 17 17 17 17 17 17 17
21 22 22 22 21 20 20 20 20 19 20 19 19 20 20 21 21 21 21 21 20 20 20 20 19 19 19 19 18 18 18 18 18 18 18 18 18 18 17 17 17 17 17 17 17 17 17 17 17
23 22 20 18 18 20 20 20 20 18 19 19 19 20 20 20 21 21 21 20 20 20 20 19 19 19 19 18 18 18 18 18 18 18 18 18 18 18 17 17 17 17 17 17 17 17 17 17 17
22 19 18 19 18 19 19 19 19 20 19 19 19 20 20 20 20 20 20 20 20 20 20 19 19 19 18 18 18 18 18 18 18 18 18 18 18 18 18 17 17 17 17 17 17 17 17 17 17
20 19 19 20 19 18 19 19 19 20 19 20 19 19 20 20 20 20 20 20 20 20 20 19 19 18 18 18 18 18 18 17 17 18 18 18 18 18 18 18 17 17 17 17 17 17 17 17 17
20 19 19 18 18 19 19 19 19 20 19 19 19 19 19 20 20 20 20 20 20 20 19 19 19 18 18 18 18 18 17 17 17 17 17 17 18 18 18 17 17 17 17 17 17 17 17 17 16
20 18 17 17 18 19 20 20 19 20 20 19 18 18 18 19 19 20 20 20 19 19 19 19 18 18 18 18 18 17 17 17 17 17 17 17 17 17 17 17 17 17 17 17 17 17 17 16 16
20 19 17 16 17 18 19 19 19 19 19 18 18 18 19 19 19 19 19 19 19 19 19 18 18 18 18 18 17 17 17 17 17 17 17 17 17 17 17 17 17 17 17 17 17 17 16 16 16
21 19 17 18 18 16 18 18 19 18 17 18 18 18 19 19 19 19 19 19 19 18 18 18 18 17 17 17 17 17 17 17 17 17 17 17 17 17 17 17 17 17 17 17 16 16 16 16 16

GEFSSGP_850_meantemp_156.txt.gz
Temperature
22 21 20 21 27 30 30 30 30 30 30 29 28 28 29 28 28 26 22 22 20 20 19 20 19 19 19 19 19 19 19 19 19 19 19 19 19 18 18 18 18 18 18 18 18 18 18 18 18
21 20 21 25 30 30 29 30 30 30 29 28 28 28 28 27 24 22 21 21 20 20 19 19 19 19 19 19 19 19 19 19 19 19 19 19 19 18 18 18 18 18 18 18 18 18 18 18 18
21 21 25 30 30 30 30 30 30 29 28 28 28 27 27 26 23 22 21 20 20 20 19 19 20 19 19 19 19 19 19 19 19 19 19 19 18 18 18 18 18 18 18 18 18 18 18 18 18
21 24 27 30 30 30 30 30 30 30 29 28 28 27 25 23 22 22 21 20 20 19 19 19 20 19 19 19 19 19 19 19 19 19 19 18 18 18 18 18 18 18 18 18 18 18 18 18 18
23 27 30 30 30 30 31 30 30 30 30 29 28 28 25 21 21 21 21 20 20 20 19 19 20 20 19 19 19 19 19 19 19 19 18 18 18 18 18 18 18 18 18 18 18 18 18 18 17
26 29 30 30 30 30 31 30 30 30 29 28 28 27 24 21 21 21 21 21 21 20 19 18 19 19 19 19 19 19 19 19 19 18 18 18 18 18 18 18 18 18 18 18 17 17 17 17 17
28 30 31 31 30 30 31 30 30 30 30 29 28 27 23 21 21 21 21 21 21 20 20 18 18 19 19 19 19 19 19 19 18 18 18 18 18 18 18 18 18 18 18 18 17 17 17 17 17
27 30 30 31 30 30 30 30 30 30 29 27 27 28 25 21 21 21 20 20 20 20 20 19 19 18 18 19 19 19 19 18 18 18 18 18 18 18 18 17 17 18 17 17 18 17 17 17 17
26 29 30 31 31 31 30 30 29 29 28 27 27 27 25 22 21 20 20 20 20 20 20 19 19 18 18 18 18 18 18 18 18 18 18 18 17 17 17 17 18 18 17 17 17 17 17 17 17
27 30 31 31 31 31 30 30 30 29 29 28 26 24 22 21 21 20 20 20 20 19 19 19 19 18 18 18 18 18 18 18 18 17 17 17 17 17 17 17 17 18 18 18 18 17 17 17 17
28 30 30 30 30 30 30 30 30 30 30 29 27 24 21 21 21 21 21 20 20 19 19 19 19 18 18 18 18 18 18 18 18 17 17 17 17 17 17 17 17 17 17 17 17 17 17 17 17
28 29 29 29 29 30 30 30 30 30 30 28 27 24 22 21 21 21 21 20 20 19 19 19 19 18 18 18 18 18 18 18 18 18 17 17 17 17 17 17 17 17 17 17 17 17 17 17 17
28 29 29 29 29 29 29 30 30 29 28 27 26 23 22 22 22 21 21 20 20 19 19 19 18 18 18 18 18 18 18 18 18 18 18 17 17 17 17 17 17 17 17 17 17 17 17 17 17
29 29 29 29 29 29 30 30 30 29 28 26 25 24 23 22 22 21 20 20 19 19 19 19 19 19 19 19 18 18 18 18 18 18 17 17 17 17 17 17 17 17 17 17 17 17 17 17 17
28 29 30 30 30 30 30 30 30 29 27 27 25 24 23 22 22 21 21 20 20 19 19 19 19 19 19 18 18 18 18 18 18 18 18 18 17 17 17 17 17 17 17 17 17 17 17 17 17
29 29 29 30 30 30 30 30 30 28 27 27 26 24 23 22 21 21 20 20 20 19 19 19 19 19 19 19 19 18 18 18 18 18 18 18 17 17 17 17 17 17 17 17 17 17 17 17 17
29 29 29 30 30 30 30 30 30 28 28 27 26 25 23 22 21 21 20 20 20 20 20 20 19 19 19 19 19 18 18 18 18 17 17 18 18 18 17 17 17 17 17 17 17 17 17 17 17
29 29 29 29 30 30 30 30 29 28 27 27 26 25 23 22 21 21 20 20 20 20 20 20 20 20 19 19 19 18 18 18 18 18 18 18 18 18 17 17 17 17 17 17 17 17 17 17 17
29 29 29 29 29 29 29 29 29 28 28 27 26 25 24 23 22 21 20 20 19 19 19 20 19 19 19 19 18 18 18 18 18 18 18 18 18 17 18 17 17 17 17 17 17 17 17 17 17
28 28 28 29 29 29 29 29 29 28 28 27 26 25 24 23 22 21 20 19 19 19 19 19 19 19 19 19 19 18 18 18 18 18 18 18 18 17 17 17 17 17 17 17 17 17 17 17 17
27 28 28 28 28 29 29 29 28 28 27 26 25 25 24 23 22 21 20 19 19 19 19 19 19 19 19 19 18 18 18 18 18 18 18 18 18 17 17 17 17 17 17 17 17 17 17 17 17
27 28 28 28 28 29 29 28 29 29 28 27 26 25 24 23 22 21 20 20 19 19 19 19 19 19 19 19 18 18 18 18 18 18 18 18 18 17 17 17 17 17 17 17 17 17 17 17 17
28 28 28 28 28 28 28 28 29 29 28 28 27 26 25 23 22 21 21 20 19 19 19 19 19 19 19 19 18 18 18 18 18 18 18 18 18 17 17 17 17 17 17 17 17 17 17 17 17
28 27 27 28 28 27 28 28 28 29 29 29 28 26 24 23 22 21 21 20 19 19 19 18 18 18 18 18 18 18 18 18 17 17 17 18 17 17 17 17 17 17 17 17 17 17 17 17 17
27 27 26 26 27 27 28 28 28 29 28 28 27 25 24 23 22 21 20 20 19 19 18 18 18 18 18 18 18 18 18 18 18 17 17 17 17 17 17 17 17 17 17 17 17 17 17 17 16
27 28 27 27 27 28 27 28 29 28 27 26 25 25 23 23 22 21 20 20 19 19 18 18 18 18 18 18 18 18 18 17 17 17 17 17 17 17 17 17 17 17 17 17 17 17 16 16 16
28 28 29 29 28 28 28 28 28 28 27 26 25 24 24 23 22 21 20 20 19 19 18 18 18 18 18 18 17 17 17 17 17 17 17 17 17 17 17 17 17 17 17 17 17 16 16 16 16
29 29 28 28 26 27 27 27 28 28 27 27 26 25 24 23 22 21 20 20 19 19 18 18 18 18 17 17 17 17 17 17 17 17 17 17 17 17 17 17 17 17 17 17 17 16 16 17 17
27 28 28 28 28 27 27 28 29 28 27 27 26 24 23 23 22 21 20 19 19 18 18 18 18 17 17 17 17 17 17 17 17 17 17 17 17 17 17 17 17 17 17 17 17 16 16 17 16
28 28 28 27 27 27 28 28 27 28 27 26 25 24 22 22 21 20 19 19 18 18 18 17 17 17 17 17 17 17 17 17 17 17 17 17 17 17 17 17 17 17 16 16 16 16 16 16 16

GEFSSGP_850_meantemp_162.txt.gz
Temperature
24 24 23 24 26 27 29 31 32 31 31 31 31 31 29 28 27 25 25 24 22 21 21 21 21 20 20 20 19 19 19 19 19 19 19 19 19 18 18 18 18 18 18 18 18 18 18 18 18
24 24 25 26 26 28 30 32 31 31 32 31 31 30 29 28 27 26 24 23 22 21 21 21 21 20 20 20 19 19 19 19 19 19 19 18 18 18 18 18 18 18 18 18 18 18 18 18 18
25 25 27 28 28 29 30 32 32 32 32 31 31 29 28 28 26 25 24 23 21 21 21 21 20 20 20 19 19 19 19 19 19 19 18 18 18 18 18 18 18 18 18 18 18 18 18 18 18
24 27 29 30 30 32 32 33 33 32 32 31 31 29 27 27 26 25 24 23 21 20 21 21 21 20 20 19 19 19 19 19 19 19 18 18 18 18 18 18 18 18 18 18 18 18 18 18 18
26 28 29 29 31 33 34 33 33 32 32 31 30 28 27 26 25 24 24 23 22 20 21 21 21 20 20 19 19 19 19 19 19 19 18 18 18 18 18 18 18 18 18 18 18 18 18 18 18
28 30 29 29 31 33 34 33 33 33 32 31 30 28 26 26 25 24 24 23 22 21 21 21 21 20 20 20 19 19 19 19 19 18 18 18 18 18 18 18 18 18 18 18 18 18 18 18 18
29 30 30 31 32 33 33 33 33 32 32 31 30 28 26 26 25 25 24 24 23 21 21 21 21 20 20 20 19 19 19 19 19 19 18 18 18 18 18 18 18 18 18 18 18 18 18 18 18
30 31 31 32 32 32 34 33 33 32 31 31 30 28 26 25 25 25 24 24 23 21 21 21 20 20 20 20 20 19 19 19 19 19 19 19 18 18 18 18 18 18 18 18 18 18 18 18 18
30 30 31 32 32 33 34 33 33 32 31 31 30 29 26 25 25 25 24 24 23 22 21 20 20 20 19 19 20 19 19 19 19 19 19 18 18 18 18 18 18 18 18 18 18 18 18 18 18
31 31 32 33 33 33 34 33 33 32 31 30 29 27 26 25 25 25 25 24 23 22 21 21 20 20 19 19 19 19 19 19 19 18 18 18 18 18 18 18 18 18 18 18 18 18 18 18 18
32 31 33 34 34 33 33 33 33 32 30 29 27 26 25 25 25 25 24 24 23 23 22 21 20 20 20 19 19 19 18 19 18 18 18 18 18 18 18 18 18 18 18 18 18 18 18 18 18
32 33 33 33 33 33 33 33 33 32 30 29 27 26 26 25 25 25 24 24 23 23 22 22 21 20 20 20 19 19 19 19 19 19 18 18 18 18 18 18 18 18 18 18 18 18 18 18 18
32 33 33 33 33 33 32 32 32 32 31 29 28 27 26 26 25 25 24 23 23 22 22 22 21 20 20 20 20 20 19 19 19 19 19 19 19 18 18 18 18 18 18 18 18 18 18 18 18
33 33 33 33 33 33 33 33 32 32 31 30 28 27 26 26 25 25 24 23 22 22 22 22 21 20 20 20 20 20 20 19 19 19 19 19 19 18 18 18 18 18 18 18 18 18 18 18 18
32 32 33 33 33 33 33 32 32 31 31 30 29 27 27 26 25 25 24 23 22 22 21 21 20 20 20 20 20 20 20 20 19 19 19 19 19 18 18 18 18 18 18 18 18 18 18 18 18
32 31 31 33 33 33 32 30 31 30 31 30 29 28 27 26 26 25 24 23 22 21 21 21 20 20 20 19 20 20 20 20 20 19 19 19 19 18 18 18 18 18 18 18 18 18 18 18 18
31 31 31 33 33 33 32 30 30 30 31 30 30 29 27 26 25 25 24 23 22 21 21 20 20 20 19 19 20 20 20 20 20 19 19 19 19 18 18 18 18 18 18 18 18 18 18 18 18
31 31 32 32 33 33 32 31 31 31 31 30 30 28 27 26 25 24 23 22 22 21 20 20 20 20 19 19 19 19 19 19 19 19 19 19 19 18 19 18 18 18 18 18 18 18 18 18 18
31 31 31 32 33 32 32 31 31 31 31 30 29 28 27 26 25 24 23 22 21 21 20 20 20 19 19 19 19 19 19 19 19 19 19 19 19 18 19 19 19 18 18 18 18 18 18 18 18
31 31 31 32 33 32 31 31 31 32 31 30 29 28 27 26 25 23 22 22 21 20 20 20 20 19 19 19 19 19 19 19 19 19 19 19 19 19 19 19 18 18 18 18 18 18 18 18 18
30 30 31 31 32 32 31 30 30 31 31 30 30 29 27 26 25 23 22 22 21 20 20 20 20 19 19 19 19 19 19 19 19 19 19 19 19 18 18 18 18 18 18 18 18 18 18 18 18
30 31 31 31 31 30 31 29 29 29 29 30 30 29 28 27 25 24 23 22 21 20 20 20 20 19 19 19 19 19 19 19 19 19 18 18 18 18 18 18 18 18 18 18 18 18 18 18 18
31 32 31 31 30 30 30 29 29 28 28 29 30 29 28 27 25 24 23 22 21 20 20 20 20 19 19 19 19 19 18 18 18 18 18 18 18 18 18 18 18 18 18 18 18 18 18 18 18
31 31 31 31 30 28 29 29 27 28 28 29 29 28 27 26 25 24 23 22 21 21 20 20 19 19 19 19 19 18 18 18 18 18 18 18 18 18 18 18 18 18 18 18 18 18 18 18 18
31 29 28 28 28 28 30 29 28 29 29 29 29 28 27 26 25 24 23 22 21 21 20 20 19 19 19 19 19 18 18 18 18 18 18 18 18 18 18 18 18 18 18 18 18 18 18 18 18
30 30 28 27 27 29 30 29 29 30 30 29 29 28 27 26 25 24 23 22 22 21 20 20 20 19 19 19 19 18 18 18 18 18 18 18 18 18 18 18 18 18 18 18 18 18 18 17 18
30 30 31 29 29 28 28 28 29 30 30 30 29 28 27 26 25 24 23 23 22 21 20 20 19 19 19 19 18 18 18 18 18 18 18 18 18 18 18 18 18 18 18 18 18 18 17 17 17
31 31 30 29 27 26 27 27 28 28 29 30 29 28 27 26 25 24 23 23 22 21 20 20 19 19 18 18 18 18 18 18 18 18 18 18 18 18 18 18 18 18 18 18 17 17 17 17 17
30 30 29 29 29 27 26 26 28 28 29 29 29 28 27 26 25 24 23 22 21 21 20 19 19 18 18 18 18 18 18 18 18 18 18 18 17 17 17 17 17 17 17 17 17 17 17 17 17
31 30 30 28 27 28 27 25 27 27 28 28 28 27 27 26 25 24 23 22 21 20 20 19 19 18 18 18 18 18 18 18 18 18 17 17 17 17 17 17 17 17 17 17 17 17 17 17 17

GEFSSGP_850_meantemp_168.txt.gz
Temperature
24 23 23 22 21 21 24 26 27 27 26 26 26 26 25 24 22 20 20 20 21 21 20 20 20 20 20 20 20 19 19 19 19 19 19 19 19 19 19 19 18 18 18 18 18 18 18 18 18
24 24 23 22 21 22 24 26 27 27 26 26 26 25 24 22 21 20 20 21 21 21 21 20 20 20 20 20 20 19 19 19 19 19 19 19 19 19 19 19 18 18 19 18 18 18 18 18 18
24 24 23 21 22 23 25 27 27 27 27 26 26 25 24 22 20 20 21 21 21 21 21 20 20 20 20 20 19 19 19 19 19 19 19 19 18 18 18 18 18 19 18 18 18 18 18 18 17
24 24 23 21 23 24 26 27 27 27 27 26 25 25 24 22 22 22 21 21 21 21 21 20 20 20 20 20 19 19 19 19 19 19 19 18 18 18 18 18 18 18 18 18 18 18 18 17 17
24 23 21 21 23 25 27 28 27 27 26 26 25 23 23 23 23 22 21 22 22 21 21 20 20 20 20 20 20 19 19 19 19 19 19 18 18 18 18 18 18 18 18 18 18 18 18 17 17
24 22 21 22 24 26 27 27 27 26 25 25 24 23 21 22 23 22 22 22 22 21 21 20 20 20 20 20 20 19 19 19 19 19 19 19 18 18 18 18 18 18 18 18 18 18 18 17 17
24 21 22 24 25 26 27 27 27 26 26 25 24 22 21 21 22 22 22 22 22 21 21 21 20 20 20 20 20 20 19 19 19 19 19 18 18 18 18 18 18 18 18 18 18 18 18 17 17
26 21 23 23 25 26 27 27 27 26 26 25 25 23 21 21 22 22 22 22 22 21 21 21 20 20 20 20 20 20 19 19 19 19 19 18 18 18 18 18 18 18 18 18 18 18 18 17 17
26 21 22 24 25 26 27 27 27 27 26 25 25 24 23 22 21 21 21 21 21 21 21 21 21 20 20 20 20 19 19 19 19 19 18 18 18 18 18 18 18 18 18 18 18 18 18 18 17
25 22 24 26 26 26 27 27 27 26 25 25 25 24 23 22 21 21 21 21 21 21 21 21 21 20 20 20 20 19 19 19 19 19 19 19 18 18 18 18 18 18 18 18 18 18 18 18 18
25 24 26 27 28 28 27 27 27 26 24 24 24 24 23 22 22 22 22 22 22 22 21 21 21 21 20 20 20 19 19 19 19 19 19 18 18 18 18 18 18 18 18 18 18 18 18 18 18
26 26 28 29 29 28 27 27 27 26 26 26 26 25 24 23 22 22 22 22 22 21 21 21 21 21 20 20 20 20 19 19 19 19 18 18 18 18 18 18 18 18 18 18 18 18 18 18 18
26 27 28 29 29 29 28 27 27 26 27 26 25 25 24 24 23 23 23 22 22 21 21 21 21 21 20 20 20 20 19 19 19 19 19 18 18 18 18 18 18 18 18 18 18 18 18 18 18
27 27 28 28 29 29 28 27 26 25 26 25 25 24 24 24 24 23 22 22 22 22 21 21 21 20 20 20 20 20 19 19 19 19 19 18 18 18 18 18 18 18 18 18 18 18 18 18 18
28 26 26 27 28 28 28 26 26 26 25 25 24 24 24 24 24 23 23 22 22 22 21 21 21 20 20 20 20 19 19 19 19 19 19 19 18 18 18 18 18 18 18 18 18 18 18 18 18
26 25 25 26 27 28 27 24 25 26 25 24 24 24 24 24 24 23 23 23 22 22 21 21 20 20 20 20 20 19 19 19 19 19 19 19 18 18 18 18 18 18 18 18 18 18 18 18 18
24 24 25 25 27 27 26 25 25 26 25 24 24 24 23 23 23 23 23 23 22 22 21 21 21 20 20 20 20 19 19 19 19 19 19 19 19 18 18 18 18 18 18 18 18 18 18 18 18
23 24 25 25 27 27 25 24 25 26 25 25 24 24 23 23 23 23 23 23 22 22 21 21 20 20 20 20 20 19 19 19 19 19 19 19 19 18 18 18 18 18 18 18 18 18 18 18 18
24 24 24 25 27 27 25 25 25 25 25 24 24 24 23 23 23 23 23 22 22 21 21 21 20 20 20 20 20 19 19 19 19 19 19 19 18 18 18 18 18 18 18 18 18 18 18 18 18
24 24 24 25 27 27 25 25 24 24 24 24 24 24 24 23 23 23 22 22 22 21 21 21 20 20 20 20 20 20 20 19 19 19 19 18 18 18 18 18 18 18 18 18 18 18 18 18 18
24 24 24 25 26 26 26 24 23 23 24 24 24 24 24 23 23 23 22 22 21 21 21 21 20 20 20 20 20 19 19 19 19 19 19 19 18 18 18 18 18 18 18 18 18 18 18 18 18
24 25 26 26 25 23 25 22 22 22 22 23 23 23 23 23 23 23 22 22 22 21 21 21 20 20 20 19 19 19 19 19 19 19 19 19 18 18 18 18 18 18 18 18 18 18 18 18 18
25 26 26 26 24 23 23 22 21 21 22 22 22 23 23 23 23 22 22 22 22 21 21 20 20 20 20 19 19 19 19 19 19 19 19 18 18 18 18 18 18 18 18 18 18 18 18 18 18
27 26 25 22 20 21 22 22 21 20 22 22 22 23 23 23 22 22 22 22 21 21 20 20 20 20 19 19 19 19 19 19 19 19 18 18 18 18 18 18 18 18 18 18 18 18 18 18 18
26 22 21 21 20 20 22 22 21 22 22 23 22 23 23 23 22 22 21 21 21 21 20 20 20 20 19 19 19 19 19 18 18 18 18 18 18 18 18 18 18 18 18 18 18 18 17 17 18
24 21 20 21 21 20 21 22 21 22 23 23 23 23 23 23 22 22 22 21 21 21 20 20 20 19 19 19 19 19 19 18 18 18 18 18 18 18 18 18 18 18 18 18 17 17 17 17 17
24 22 21 20 21 20 20 21 22 22 22 22 22 22 22 22 22 22 22 21 21 21 20 20 20 19 19 19 19 19 18 18 18 18 18 18 18 18 18 18 18 18 18 17 17 17 17 17 17
25 23 20 20 20 20 21 21 20 20 20 20 21 21 21 22 22 22 21 21 21 21 20 20 19 19 19 19 19 18 18 18 18 18 18 18 18 18 17 17 17 17 17 17 17 17 17 17 17
25 24 21 18 19 19 20 20 21 20 20 20 20 21 22 21 22 21 21 21 21 20 20 19 19 19 19 19 18 18 18 18 18 18 18 18 18 17 17 17 17 17 17 17 17 17 17 17 17
24 23 20 20 20 18 19 20 21 20 20 20 20 21 22 22 21 21 21 21 20 20 19 19 19 19 19 18 18 18 18 18 18 17 17 17 17 17 17 17 17 17 17 17 17 17 17 17 17